Other Public Products
Issued by NWS Grand Forks, ND

Home | Current Version | Previous Version | Graphics & Text | Print | Product List | Glossary On
Versions: 1 2 3 4 5 6 7 8 9 10 11 12 13 14 15 16 17 18 19 20 21 22 23 24 25 26 27 28 29 30 31 32 33 34 35 36 37 38 39 40 41 42 43 44 45 46 47 48 49 50
000
FPUS83 KFGF 250510
OPUFGF
PRAIRIE TO PINES WEATHER ROUNDUP
NATIONAL WEATHER SERVICE EASTERN NORTH DAKOTA/GRAND FORKS ND
1200 AM CDT MON JUL 25 2016

 **SATELLITE DATA USED TO AUGMENT SKY COVER AT AUTOMATED STATIONS**
 *****  WEATHER ACROSS EASTERN NORTH DAKOTA  *****

CITY           SKY/WX    TMP DP  RH WIND       PRES   REMARKS
GRAND FORKS    CLEAR     65  60  84 W7        29.95R
GRAND FORKS AF CLEAR     65  60  85 W7        29.96S
GRAND CITY NWS   N/A     64 N/A N/A W3          N/A
BUXTON           N/A     65  64  97 W6          N/A
DEVILS LAKE    PTCLDY    64  59  83 W6        30.00S
FARGO          CLEAR     66  59  78 W7        29.98S
WAHPETON ARPT  CLEAR     63  57  82 W5        30.01S
$$

 *****  WEATHER ACROSS CENTRAL AND WESTERN NORTH DAKOTA  *****

CITY           SKY/WX    TMP DP  RH WIND       PRES   REMARKS
JAMESTOWN      CLEAR     62  59  90 CALM      30.02S
BISMARCK       CLEAR     64  59  83 SE5       30.03F
MINOT          CLEAR     69  61  75 S5        30.00S
MINOT AFB      CLEAR     60  58  91 S2        29.99F
GARRISON         N/A     64  60  87 CALM      30.02R
WILLISTON      CLEAR     67  58  72 N8        29.99S
DICKINSON      CLEAR     60  53  77 S9        30.03S
HETTINGER      CLEAR     67  50  54 E7        30.07F
$$

 *****  OTHER OBSERVATIONS NORTHEAST NORTH DAKOTA  *****

CITY           SKY/WX    TMP DP  RH WIND       PRES   REMARKS
WALHALLA       NOT AVBL
LANGDON        FAIR      59  59 100 W3        29.99S
CAVALIER       FAIR      64  63  94 W5        29.94F
GRAFTON        FAIR      68  63  83 W8        29.96S
CANDO          NOT AVBL
FORT TOTTEN      N/A     61  57  88 CALM      29.95S
ROLLA            N/A     59  57  94 W6        30.01S
RUGBY          NOT AVBL
 ***** THE ABOVE OBSERVATIONS ARE NON NWS ARE NOT QUALITY
        CONTROLLED AND MAY MIS-REPORT RAIN FOR SNOW...
$$

 *****  OTHER OBSERVATIONS SOUTHEAST NORTH DAKOTA *****

CITY           SKY/WX    TMP DP  RH WIND       PRES   REMARKS
COOPERSTOWN    NOT AVBL
VALLEY CITY      N/A     63  63 100 W5        30.03S
OAKES            N/A    N/A N/A N/A MISG        N/A
GWINNER        FAIR      63  59  88 W9        30.03S
SHEYENNE NWR     N/A     62  57  83 W3        29.95S
BUFFALO          N/A     64  58  81 W3          N/A
WYNDMERE       NOT AVBL
 ***** THE ABOVE OBSERVATIONS ARE NON NWS ARE NOT QUALITY
       CONTROLLED AND MAY MIS-REPORT RAIN FOR SNOW...
$$

  *****  WEATHER ACROSS NORTHERN MINNESOTA  *****

CITY           SKY/WX    TMP DP  RH WIND       PRES   REMARKS
FLAG ISLAND    CLEAR     66  61  82 W9        29.90R
WARROAD        NOT AVBL
ROSEAU         CLEAR     66  61  82 W6        29.93S
HALLOCK        CLEAR     64  63  94 CALM      29.93S
THF RVR FALLS  CLEAR     65  61  87 W7        29.96S
HALSTAD        NOT AVBL
FOSSTON        CLEAR     61  57  88 W3        29.97S
BAUDETTE       NOT AVBL
WASKISH        CLEAR     70  63  78 W9        29.93S
CROOKSTON      CLEAR     64  61  88 W6        29.96S
$$
  *****  WEATHER ACROSS CENTRAL AND WEST MINNESOTA  *****

CITY           SKY/WX    TMP DP  RH WIND       PRES   REMARKS
BEMIDJI        CLEAR     64  61  88 W6        29.96S
PARK RAPIDS    CLEAR     63  58  83 W5        29.98S
WADENA         CLEAR     61  57  88 SW3       29.99S
DETROIT LAKES  CLEAR     68  59  73 W7        30.01S
MOORHEAD       CLEAR     66  61  82 SW3       29.99F
FERGUS FALLS   CLEAR     66  59  77 CALM      30.02R
ELBOW LAKE     FAIR      62  59  90 SW5       30.02R
MORRIS MN      CLEAR     64  61  88 W6        30.01S
STAPLES        CLEAR     63  57  82 W6        29.99S
WHEATON        CLEAR     66  63  88 SW5       30.03S
$$
  *****  WEATHER ELSEWHERE ACROSS MINNESOTA  *****

CITY           SKY/WX    TMP DP  RH WIND       PRES   REMARKS
DULUTH         CLEAR     67  61  81 W9        29.91R
INTRNTL FALLS  CLEAR     62  58  86 W6        29.90R
ELY            CLEAR     66  57  72 W7        29.88S
CLOQUET        CLEAR     66  57  72 W7        29.92S
BRAINERD       CLEAR     70  59  68 W8        29.98R
HIBBING        CLEAR     66  59  78 W6        29.91S
ALEXANDRIA     PTCLDY    65  58  78 SW3       30.03R
SAINT CLOUD    CLEAR     69  60  73 W9        29.98R
MINNEAPOLIS    CLEAR     74  62  66 W7        29.97S
$$

  *****  WEATHER ACROSS SOUTH DAKOTA  *****

CITY           SKY/WX    TMP DP  RH WIND       PRES   REMARKS
SIOUX FALLS    PTCLDY    68  62  81 W3        30.08S
BROOKINGS      CLEAR     67  63  87 CALM      30.08S
WATERTOWN      CLEAR     67  60  78 W5        30.07S
HURON          CLEAR     70  58  65 SW5       30.06S
SISSETON         N/A     67  59  75 W7        30.02R
ABERDEEN       CLEAR     63  59  87 SE3       30.05S
MITCHELL       CLEAR     69  59  70 SW9       30.09S
PIERRE         CLEAR     64  50  60 E6        30.06S
MOBRIDGE       CLEAR     69  57  65 SE3       30.04S
RAPID CITY     CLEAR     65  51  60 S7        30.11S
$$

  *****  SOME WEATHER IN NEARBY STATES *****

CITY           SKY/WX    TMP DP  RH WIND       PRES   REMARKS
GLASGOW MT     CLEAR     67  50  54 NE10      29.97F
GREAT FALLS MT CLEAR     65  41  41 S9        30.01S
CHEYENNE WY    CLEAR     60  54  80 S14       30.32R
SCOTTSBLUFF NE CLEAR     66  55  67 SE6       30.19R
OMAHA NE       MOCLDY    71  66  84 NW5       30.05R
DES MOINES IA  CLEAR     75  65  70 N5        30.01S
DAVENPORT IA   CLOUDY    72  68  87 NW5       29.97R
CHICAGO IL     CLOUDY    76  68  76 SW8       29.92R
EAU CLAIRE WI  CLEAR     68  64  87 W7        29.94S
LA CROSSE WI   PTCLDY    73  66  78 NW6       29.94S
$$

  *****  SOME NATIONAL WEATHER *****

CITY           SKY/WX    TMP DP  RH WIND       PRES   REMARKS
LA GUARDIA NY  MOCLDY    84  66  54 S9        29.95F
RALEIGH NC     PTCLDY    82  75  79 SW8       30.04S
ATLANTA GA     PTCLDY    81  70  69 CALM      30.06S
NEW ORLEANS LA CLOUDY    82  78  88 S3        29.96F HX  91
OKLAHOMA CITY  PTCLDY    81  71  71 SE6       29.98R
ALBUQUERQUE NM CLOUDY    73  57  57 CALM      30.24S
SALT LAKE CITY CLEAR     80  37  21 SE6       30.02S
LOS ANGELES CA PTCLDY    71  66  84 SW7       29.92R
BOISE ID       CLEAR     77  40  26 CALM      29.96S
SEATTLE WA     CLEAR     69  57  65 N9        30.04R
$$

*** WEATHER ACROSS MANITOBA...SASKATCHEWAN AND ONTARIO ***
                ***ONTARIO***

CITY           SKY/WX    TMP DP  RH WIND       PRES   REMARKS
GERALDTON      PTCLDY    63  59  88 W7        29.67F
THUNDER BAY    CLEAR     66  59  77 W8        29.75S
SIOUX LOOKOUT  CLOUDY    63  61  94 NW8G17    29.80R
TORONTO        MOCLDY    72  66  83 SE5       29.89S
BIG TROUT LK   LGT RAIN  59  59 100 NW12      29.61R FOG
PICKLE LAKE    NOT AVBL
DRYDEN         CLEAR     61  59  94 W10       29.85R
KENORA         NOT AVBL
$$
                *** MANITOBA***

CITY           SKY/WX    TMP DP  RH WIND       PRES   REMARKS
BRANDON        CLEAR     57  55  94 W8        29.96S
DAUPHIN        CLEAR     61  59  94 W9        29.91S
ISLAND LAKE    PTCLDY    64  63  94 NW5       29.78S
PILOT MOUND      N/A     61  57  88 SW6         N/A
THE PAS        PTCLDY    68  57  68 SW7       29.80S
THOMPSON       PTCLDY    55  54  94 CALM      29.77F
WINNIPEG       CLEAR     61  59  94 W7        29.92S
LYNN LAKE      CLOUDY    63  59  88 MISG      29.68F
CHURCHILL      FOG       46  45  93 E7        29.80F VSB 1/4
GILLAM         PTCLDY    59  54  82 E5        29.77S
$$
                ***SASKATCHEWAN***

CITY           SKY/WX    TMP DP  RH WIND       PRES   REMARKS
ESTEVAN        CLEAR     63  59  88 E3        30.01S
KINDERSLEY     PTCLDY    63  57  82 SE9       29.94F
LLOYDMINSTER   LGT RAIN  61  57  88 N13G26    29.92F
PRINCE ALBERT  PTCLDY    64  59  82 SW5       29.86S
REGINA         NOT AVBL
YORKTON        CLEAR     64  57  77 SW8       29.95S  C1F1C2F2C3F3C4F4C5F5C6F6C7F7C8F8C9F9CaFaCbFbCcFcCdFdCe!


USA.gov is the U.S. government's official web portal to all federal, state and local government web resources and services.